Terminal Aerodrome Forecast
Issued by NWS Quad Cities IA IL

Home | Current Version | Previous Version | Text Only | Print | Product List | Glossary On
Versions: 1 2 3 4 5 6 7 8 9 10 11 12 13 14 15 16 17 18 19 20 21 22 23 24 25 26 27 28 29 30 31
000
FTUS43 KDVN 231700 AAE
TAFMLI
TAF AMD
KMLI 231705Z 2317/2412 04010KT 3SM -RA BR VCTS SCT003 BKN060CB
      OVC150
     FM231800 09007KT P6SM SCT060 OVC150
     FM231900 13007KT P6SM BKN050
     FM240700 12005KT 1SM BR SCT100=

USA.gov is the U.S. government's official web portal to all federal, state and local government web resources and services.